Time,TemperatureF,DewpointF,PressureIn,WindDirection,WindDirectionDegrees,WindSpeedMPH,WindSpeedGustMPH,Humidity,HourlyPrecipIn,Conditions,Clouds,dailyrainin,SoftwareType,DateUTC
2013-03-22 00:14:00,52.2,41.2,29.90,WSW,254,0.0,0.0,66,0.00,,,0.00,WeatherDisplay:10.37,2013-03-22 04:14:00,
2013-03-22 00:29:00,51.1,40.9,29.90,WSW,254,0.0,0.0,68,0.00,,,0.00,WeatherDisplay:10.37,2013-03-22 04:29:00,
2013-03-22 00:44:00,50.4,41.4,29.90,WSW,254,0.0,0.0,71,0.00,,,0.00,WeatherDisplay:10.37,2013-03-22 04:44:00,
2013-03-22 00:59:00,49.9,41.2,29.90,WSW,254,0.0,0.0,72,0.00,,,0.00,WeatherDisplay:10.37,2013-03-22 04:59:00,
2013-03-22 01:14:00,49.5,41.2,29.89,WSW,254,0.0,0.0,73,0.00,,,0.00,WeatherDisplay:10.37,2013-03-22 05:14:00,
2013-03-22 01:29:00,49.1,41.5,29.89,WSW,254,0.0,0.0,75,0.00,,,0.00,WeatherDisplay:10.37,2013-03-22 05:29:00,
2013-03-22 01:44:00,48.6,41.4,29.89,WSW,254,0.0,0.0,76,0.00,,,0.00,WeatherDisplay:10.37,2013-03-22 05:44:00,
2013-03-22 01:59:00,47.9,41.4,29.89,WSW,254,0.0,0.0,78,0.00,,,0.00,WeatherDisplay:10.37,2013-03-22 05:59:00,
2013-03-22 02:14:00,47.6,41.4,29.89,WSW,254,0.0,0.0,79,0.00,,,0.00,WeatherDisplay:10.37,2013-03-22 06:14:00,
2013-03-22 02:29:00,47.6,41.7,29.88,WSW,254,0.0,0.0,80,0.00,,,0.00,WeatherDisplay:10.37,2013-03-22 06:29:00,
2013-03-22 02:44:00,47.4,41.9,29.88,WSW,254,0.0,0.0,81,0.00,,,0.00,WeatherDisplay:10.37,2013-03-22 06:44:00,
2013-03-22 02:59:00,46.8,41.3,29.87,WSW,254,0.0,0.0,81,0.00,,,0.00,WeatherDisplay:10.37,2013-03-22 06:59:00,
2013-03-22 03:14:00,46.7,41.8,29.88,WSW,254,0.0,0.0,83,0.00,,,0.00,WeatherDisplay:10.37,2013-03-22 07:14:00,
2013-03-22 03:29:00,46.8,42.2,29.87,WSW,254,0.0,0.0,84,0.00,,,0.00,WeatherDisplay:10.37,2013-03-22 07:29:00,
2013-03-22 03:44:00,46.2,42.0,29.87,WSW,254,0.0,0.0,85,0.00,,,0.00,WeatherDisplay:10.37,2013-03-22 07:44:00,
2013-03-22 03:59:00,46.4,42.4,29.87,WSW,254,0.0,0.0,86,0.00,,,0.00,WeatherDisplay:10.37,2013-03-22 07:59:00,
2013-03-22 04:14:00,46.4,42.4,29.87,WSW,254,0.0,0.0,86,0.00,,,0.00,WeatherDisplay:10.37,2013-03-22 08:14:00,
2013-03-22 04:29:00,46.4,42.7,29.87,WSW,254,0.0,0.0,87,0.00,,,0.00,WeatherDisplay:10.37,2013-03-22 08:29:00,
2013-03-22 04:44:00,46.4,43.0,29.88,WSW,254,0.0,0.0,88,0.00,,,0.00,WeatherDisplay:10.37,2013-03-22 08:44:00,
2013-03-22 04:59:00,46.1,43.0,29.87,WSW,254,0.0,0.0,89,0.00,,,0.00,WeatherDisplay:10.37,2013-03-22 08:59:00,
2013-03-22 05:14:00,46.1,43.0,29.88,WSW,254,0.0,0.0,89,0.00,,,0.00,WeatherDisplay:10.37,2013-03-22 09:14:00,
2013-03-22 05:29:00,45.8,42.7,29.87,WSW,254,0.0,0.0,89,0.00,,,0.00,WeatherDisplay:10.37,2013-03-22 09:29:00,
2013-03-22 05:44:00,45.8,42.7,29.88,WSW,254,0.0,0.0,89,0.00,,,0.00,WeatherDisplay:10.37,2013-03-22 09:44:00,
2013-03-22 05:59:00,45.7,42.9,29.89,WSW,254,0.0,0.0,90,0.00,,,0.00,WeatherDisplay:10.37,2013-03-22 09:59:00,
2013-03-22 06:14:00,46.0,43.3,29.90,WSW,254,0.0,0.0,90,0.00,,,0.00,WeatherDisplay:10.37,2013-03-22 10:14:00,
2013-03-22 06:29:00,46.0,43.2,29.90,WSW,254,0.0,0.0,90,0.00,,,0.00,WeatherDisplay:10.37,2013-03-22 10:29:00,
2013-03-22 06:44:00,46.1,43.6,29.91,WSW,254,0.0,0.0,91,0.00,,,0.00,WeatherDisplay:10.37,2013-03-22 10:44:00,
2013-03-22 06:59:00,46.7,44.2,29.92,WSW,254,0.0,0.0,91,0.00,CLR,,0.00,WeatherDisplay:10.37,2013-03-22 10:59:00,
2013-03-22 07:14:00,48.1,44.7,29.93,WSW,254,0.0,0.0,88,0.00,CLR,,0.00,WeatherDisplay:10.37,2013-03-22 11:14:00,
2013-03-22 07:29:00,48.8,44.5,29.94,WSW,255,0.0,0.0,85,0.00,CLR,,0.00,WeatherDisplay:10.37,2013-03-22 11:29:00,
2013-03-22 07:44:00,48.9,44.0,29.94,WSW,255,0.0,0.0,83,0.00,CLR,,0.00,WeatherDisplay:10.37,2013-03-22 11:44:00,
2013-03-22 07:59:00,49.4,43.5,29.95,WNW,292,0.0,5.0,80,0.00,CLR,,0.00,WeatherDisplay:10.37,2013-03-22 11:59:00,
2013-03-22 08:14:00,50.4,43.5,29.95,WNW,294,0.0,0.0,77,0.00,CLR,,0.00,WeatherDisplay:10.37,2013-03-22 12:14:00,
2013-03-22 08:29:00,51.3,43.7,29.95,WNW,294,0.0,0.0,75,0.00,CLR,,0.00,WeatherDisplay:10.37,2013-03-22 12:29:00,
2013-03-22 08:44:00,52.8,44.4,29.96,NW,320,0.0,7.0,73,0.00,CLR,,0.00,WeatherDisplay:10.37,2013-03-22 12:44:00,
2013-03-22 08:59:00,54.1,45.3,29.96,North,360,0.0,4.0,72,0.00,CLR,,0.00,WeatherDisplay:10.37,2013-03-22 12:59:00,
2013-03-22 09:14:00,56.5,46.4,29.96,NNE,20,0.0,7.0,69,0.00,CLR,,0.00,WeatherDisplay:10.37,2013-03-22 13:14:00,
2013-03-22 09:29:00,58.3,47.0,29.96,NNE,33,0.0,0.0,66,0.00,CLR,,0.00,WeatherDisplay:10.37,2013-03-22 13:29:00,
2013-03-22 09:44:00,60.8,45.9,29.96,NNE,33,0.0,9.0,58,0.00,CLR,,0.00,WeatherDisplay:10.37,2013-03-22 13:44:00,
2013-03-22 09:59:00,63.6,44.6,29.96,NNE,13,0.0,6.0,50,0.00,CLR,,0.00,WeatherDisplay:10.37,2013-03-22 13:59:00,
2013-03-22 10:14:00,65.5,44.2,29.96,NE,34,0.0,6.0,46,0.00,CLR,,0.00,WeatherDisplay:10.37,2013-03-22 14:14:00,
2013-03-22 10:29:00,67.0,43.8,29.97,ESE,110,0.0,0.0,43,0.00,CLR,,0.00,WeatherDisplay:10.37,2013-03-22 14:29:00,
2013-03-22 10:44:00,69.1,43.1,29.97,NE,36,1.0,7.0,39,0.00,CLR,,0.00,WeatherDisplay:10.37,2013-03-22 14:44:00,
2013-03-22 10:59:00,69.8,43.0,29.97,NE,40,0.0,7.0,38,0.00,CLR,,0.00,WeatherDisplay:10.37,2013-03-22 14:59:00,
2013-03-22 11:14:00,69.7,42.3,29.96,East,93,0.0,10.0,37,0.00,CLR,,0.00,WeatherDisplay:10.37,2013-03-22 15:14:00,
2013-03-22 11:29:00,71.0,42.7,29.96,ENE,75,0.0,8.0,36,0.00,CLR,,0.00,WeatherDisplay:10.37,2013-03-22 15:29:00,
2013-03-22 11:44:00,72.0,40.5,29.96,East,99,1.0,8.0,32,0.00,CLR,,0.00,WeatherDisplay:10.37,2013-03-22 15:44:00,
2013-03-22 11:59:00,72.7,39.5,29.96,ESE,117,0.0,7.0,30,0.00,CLR,,0.00,WeatherDisplay:10.37,2013-03-22 15:59:00,
2013-03-22 12:14:00,72.8,39.5,29.95,SE,125,0.0,2.0,30,0.00,CLR,,0.00,WeatherDisplay:10.37,2013-03-22 16:14:00,
2013-03-22 12:29:00,74.7,39.4,29.95,ENE,68,0.0,6.0,28,0.00,CLR,,0.00,WeatherDisplay:10.37,2013-03-22 16:29:00,
2013-03-22 12:44:00,74.4,42.6,29.94,SE,124,0.0,6.0,32,0.00,CLR,,0.00,WeatherDisplay:10.37,2013-03-22 16:44:00,
2013-03-22 12:59:00,76.4,45.9,29.93,ESE,113,0.0,7.0,34,0.00,CLR,,0.00,WeatherDisplay:10.37,2013-03-22 16:59:00,
2013-03-22 13:14:00,76.9,46.4,29.93,South,171,0.0,7.0,34,0.00,CLR,,0.00,WeatherDisplay:10.37,2013-03-22 17:14:00,
2013-03-22 13:29:00,76.5,47.5,29.92,SE,143,0.0,4.0,36,0.00,CLR,,0.00,WeatherDisplay:10.37,2013-03-22 17:29:00,
2013-03-22 13:44:00,77.0,49.4,29.92,SSW,192,0.0,8.0,38,0.00,CLR,,0.00,WeatherDisplay:10.37,2013-03-22 17:44:00,
2013-03-22 13:59:00,78.1,49.7,29.90,South,175,0.0,9.0,37,0.00,,,0.00,WeatherDisplay:10.37,2013-03-22 17:59:00,
2013-03-22 14:14:00,77.7,49.3,29.90,SSE,168,0.0,6.0,37,0.00,,,0.00,WeatherDisplay:10.37,2013-03-22 18:14:00,
2013-03-22 14:29:00,79.2,49.2,29.90,South,173,0.0,6.0,35,0.00,,,0.00,WeatherDisplay:10.37,2013-03-22 18:29:00,
2013-03-22 14:44:00,78.9,48.9,29.89,SSE,162,0.0,10.0,35,0.00,,,0.00,WeatherDisplay:10.37,2013-03-22 18:44:00,
2013-03-22 14:59:00,79.4,50.1,29.89,SSE,161,0.0,8.0,36,0.00,,,0.00,WeatherDisplay:10.37,2013-03-22 18:59:00,
2013-03-22 15:14:00,78.6,50.1,29.88,SE,145,0.0,8.0,37,0.00,,,0.00,WeatherDisplay:10.37,2013-03-22 19:14:00,
2013-03-22 15:29:00,77.7,49.3,29.88,South,184,0.0,8.0,37,0.00,,,0.00,WeatherDisplay:10.37,2013-03-22 19:29:00,
2013-03-22 15:44:00,77.8,48.7,29.87,SSE,164,2.0,9.0,36,0.00,,,0.00,WeatherDisplay:10.37,2013-03-22 19:44:00,
2013-03-22 15:59:00,78.0,48.9,29.86,SE,133,1.0,12.0,36,0.00,,,0.00,WeatherDisplay:10.37,2013-03-22 19:59:00,
2013-03-22 16:14:00,79.9,49.8,29.85,SE,145,0.0,10.0,35,0.00,,,0.00,WeatherDisplay:10.37,2013-03-22 20:14:00,
2013-03-22 16:29:00,80.7,50.5,29.85,SSE,154,0.0,1.0,35,0.00,,,0.00,WeatherDisplay:10.37,2013-03-22 20:29:00,
2013-03-22 16:44:00,79.1,50.6,29.85,South,181,0.0,7.0,37,0.00,,,0.00,WeatherDisplay:10.37,2013-03-22 20:44:00,
2013-03-22 16:59:00,78.1,51.8,29.85,SSE,168,0.0,5.0,40,0.00,,,0.00,WeatherDisplay:10.37,2013-03-22 20:59:00,
2013-03-22 17:14:00,77.3,52.4,29.85,SSW,210,0.0,1.0,42,0.00,,,0.00,WeatherDisplay:10.37,2013-03-22 21:14:00,
2013-03-22 17:29:00,75.4,56.6,29.85,SSE,155,0.0,4.0,52,0.00,,,0.00,WeatherDisplay:10.37,2013-03-22 21:29:00,
2013-03-22 17:44:00,71.7,55.7,29.87,SE,131,0.0,12.0,57,0.00,,,0.00,WeatherDisplay:10.37,2013-03-22 21:44:00,
2013-03-22 17:59:00,66.8,58.7,29.88,SE,141,0.0,5.0,75,0.08,RA,,0.08,WeatherDisplay:10.37,2013-03-22 21:59:00,
2013-03-22 18:14:00,65.4,59.1,29.87,SE,143,0.0,0.0,80,0.00,CLR,,0.08,WeatherDisplay:10.37,2013-03-22 22:14:00,
2013-03-22 18:29:00,64.5,59.2,29.89,SE,143,0.0,0.0,83,0.00,CLR,,0.08,WeatherDisplay:10.37,2013-03-22 22:29:00,
2013-03-22 18:44:00,63.5,58.6,29.89,ESE,116,0.0,7.0,84,0.00,CLR,,0.08,WeatherDisplay:10.37,2013-03-22 22:44:00,
2013-03-22 18:59:00,63.5,58.9,29.90,ESE,116,0.0,0.0,85,0.05,RA,,0.13,WeatherDisplay:10.37,2013-03-22 22:59:00,
2013-03-22 19:14:00,63.0,58.7,29.92,ESE,116,0.0,0.0,86,0.03,RA,,0.16,WeatherDisplay:10.37,2013-03-22 23:14:00,
2013-03-22 19:29:00,62.7,59.1,29.92,ESE,116,0.0,0.0,88,0.01,RA,,0.17,WeatherDisplay:10.37,2013-03-22 23:29:00,
2013-03-22 19:44:00,62.4,59.1,29.91,ESE,116,0.0,0.0,89,0.00,CLR,,0.17,WeatherDisplay:10.37,2013-03-22 23:44:00,
2013-03-22 19:59:00,62.3,59.0,29.90,ESE,116,0.0,0.0,89,0.00,,,0.17,WeatherDisplay:10.37,2013-03-22 23:59:00,
2013-03-22 20:14:00,62.0,58.7,29.91,ESE,116,0.0,0.0,89,0.00,,,0.17,WeatherDisplay:10.37,2013-03-23 00:14:00,
2013-03-22 20:29:00,62.0,59.0,29.91,ESE,116,0.0,0.0,90,0.00,,,0.17,WeatherDisplay:10.37,2013-03-23 00:29:00,
2013-03-22 20:44:00,62.0,59.0,29.92,ESE,116,0.0,0.0,90,0.00,,,0.17,WeatherDisplay:10.37,2013-03-23 00:44:00,
2013-03-22 20:59:00,61.8,58.8,29.92,ESE,116,0.0,0.0,90,0.00,,,0.17,WeatherDisplay:10.37,2013-03-23 00:59:00,
2013-03-22 21:14:00,61.8,59.1,29.92,ESE,116,0.0,0.0,91,0.00,,,0.17,WeatherDisplay:10.37,2013-03-23 01:14:00,
2013-03-22 21:29:00,61.8,59.1,29.93,ESE,116,0.0,0.0,91,0.00,,,0.17,WeatherDisplay:10.37,2013-03-23 01:29:00,
2013-03-22 21:44:00,62.0,59.3,29.94,ESE,116,0.0,0.0,91,0.00,,,0.17,WeatherDisplay:10.37,2013-03-23 01:44:00,
2013-03-22 21:59:00,62.3,59.6,29.94,ESE,116,0.0,0.0,91,0.00,,,0.17,WeatherDisplay:10.37,2013-03-23 01:59:00,
2013-03-22 22:14:00,62.4,60.0,29.93,ESE,116,0.0,0.0,92,0.00,,,0.17,WeatherDisplay:10.37,2013-03-23 02:14:00,
2013-03-22 22:29:00,62.3,59.9,29.93,ESE,116,0.0,0.0,92,0.00,,,0.17,WeatherDisplay:10.37,2013-03-23 02:29:00,
2013-03-22 22:44:00,62.3,59.9,29.93,ESE,116,0.0,0.0,92,0.00,,,0.17,WeatherDisplay:10.37,2013-03-23 02:44:00,
2013-03-22 22:59:00,62.4,60.0,29.95,ESE,116,0.0,0.0,92,0.00,,,0.17,WeatherDisplay:10.37,2013-03-23 02:59:00,
2013-03-22 23:14:00,62.4,60.0,29.95,ESE,116,0.0,0.0,92,0.00,,,0.17,WeatherDisplay:10.37,2013-03-23 03:14:00,
2013-03-22 23:29:00,62.5,60.2,29.94,ESE,116,0.0,0.0,92,0.01,RA,,0.18,WeatherDisplay:10.37,2013-03-23 03:29:00,
2013-03-22 23:44:00,62.6,60.6,29.94,ESE,116,0.0,0.0,93,0.00,,,0.18,WeatherDisplay:10.37,2013-03-23 03:44:00,
2013-03-22 23:59:00,62.6,60.5,29.94,ESE,116,0.0,0.0,93,0.00,RA,,0.00,WeatherDisplay:10.37,2013-03-23 03:59:00,